Back to catalog

STARLINK-35426

AliveCommunicationsVLEO
NORAD 66441·PAYLOAD·🇺🇸 United States

Launched Nov 11, 2025 from Cape Canaveral Space Force Station

Loading…

Next Passes (next 24 hours)

TLE

FreshSource: CelesTrak SupGP

Epoch: Sep 14, 2026, 20:48 UTC

1 66441C 25259V   26257.86715278 -.00003648  00000+0 -13213-3 0  2572
2 66441  43.0019 285.8654 0001397 265.3283 133.3092 15.27579524    16

Track STARLINK-35426 in real time with AllMySat

Download on the App Store